Location: Pine Mountain Observatory
(43.7910°N, 120.9377°W)
Time: 07:54:05
(UTC-07:00)

Explorer 11/Cluster Stage 4 - Pass Details

Date: 26 May 2019
Orbit: 467 x 1260 km, 28.8° (Epoch: 16 June)

Event Time Altitude Azimuth Distance (km) Brightness Sun altitude
Rises 02:48:44 0° 219° (SW) 3,630 - -20.5°
Reaches altitude 10° 02:53:32 10° 189° (S) 2,458 - -20.1°
Maximum altitude 02:55:27 12° 170° (S) 2,250 - -20.0°
Drops below altitude 10° 02:57:15 10° 150° (SSE) 2,274 - -19.8°
Exits shadow 02:58:03 - 142° (SE) 2,354 8.8 -19.7°
Sets 03:01:11 0° 118° (ESE) 2,993 9.6 -19.5°
